THORAD DELTA 1 DEB

Satellite information

Favourite Embed

Satellite Type and Status

DEBRISIN ORBIT

Key statistics

Satellite THORAD DELTA 1 DEB at a glance.

Uptime

18498

Days in orbit

Revolutions

≈ 12.5

Per day

Orbit

SSO

Sun Synchronous Orbit

Inclination

101.5

Latest

Satellite identification and parameters

Extended collection of information and parameters for THORAD DELTA 1 DEB.

Object identification

Identified? True

Debris? True

Object name: THORAD DELTA 1 DEB

International designator: 1974-089EE

Object number (NORAD): 9987

Object ID (CCSDS): 9987

Country: UNITED STATES OF AMERICA (US)

Current information (Y/N): Y

RCS size: SMALL

Orbital parameters

Period: 115.041 minutes

Inclination: 101.4642 deg

SMA: 7835.414 km

Apoapsis: 1534.221 km

Periapsis: 1380.337 km

RAAN: 329.7098 deg

Eccentricy: 0.0098198

Argument of periapsis: 61.1535 deg

Mean anomaly: 331.6764 deg

Mean motion: 12.51727619 rev/day

Mean motion (dot): 0.00000154 rev/day2

B* drag term: 0.0012396 1/REarth

Two-line elements (TLE)

Creation date: July 6, 2025, 6:05 p.m.

Reference frame: TEME

Reference center: EARTH

Epoch: July 6, 2025, 8:32 a.m. UTC

TLE line 0: 0 THORAD DELTA 1 DEB

TLE line 1: 1 09987U 74089EE 25187.35572332 .00000154 00000-0 12396-2 0 9997

TLE line 2: 2 09987 101.4642 329.7098 0098198 61.1535 331.6764 12.51727619306074

Live tracking on map

Real-time ground track for satellite THORAD DELTA 1 DEB.

In-orbit conjunctions

A list of the most updated potential collisions computed for object THORAD DELTA 1 DEB.

Target Orbit TCA Probability of collision Miss distance Type
COSMOS 976 LEO 2024-11-06 16:22:54 0.0001748828 880.0 (m) PAYLOAD
COSMOS 566 LEO 2024-07-15 05:29:36 0.001568301 33.0 (m) PAYLOAD

Associated space launch

Meteorological satellite using radiometric imaging

THORAD DELTA 1 DEB was lifted into orbit during the mission ‘Delta 2310 | NOAA 4’, on board a Delta 2310 space rocket.

The launch took place on Nov. 15, 1974, 5:11 p.m. from Space Launch Complex 2W.

For more information about the launch, click the button.

Launch to space Delta 2310 | NOAA 4
Delta 2310 | NOAA 4

Agency: N/A

Status: Launch Successful

Launch date: Nov. 15, 1974, 5:11 p.m. UTC

Rocket: Delta 2310

Launch pad: Space Launch Complex 2W

Location: Vandenberg SFB, CA, USA

...

Latest news about this satellite

There are no fresh news available about this satellite. Check back as we update our databases every day.


Newsletter sign-up

Weekly statistics, charts and insights to help you stay on top of the space industry.